Temperature
2 2 2 2 2 2 2 2 2 2 2 2 2 2 2 2 2 2 2 2 2 2 2 2 3 3 3 2 2 2 2 2 2 2 2 2 2 2 2 3 3 3 3
1 1 1 1 1 1 1 1 1 1 2 2 2 2 2 2 2 2 2 2 2 2 2 2 2 2 2 2 2 2 2 1 1 1 1 1 2 2 2 2 2 2 2
1 1 1 1 1 1 1 1 1 1 1 1 1 1 1 1 1 1 1 1 1 1 1 1 1 1 1 1 1 1 1 1 1 1 1 1 1 1 1 1 1 1 1
0 0 0 0 0 0 0 0 0 0 0 0 0 0 0 0 0 1 1 1 1 1 1 1 1 1 1 1 1 1 1 1 1 1 1 0 0 0 0 0 1 1 1
0 -0 -0 -0 -0 -0 -0 -0 -0 -0 -0 -0 -0 -0 -0 -0 -0 -0 0 0 0 0 0 0 0 0 0 0 0 0 0 0 0 0 -0 -0 -0 -0 -0 -0 -0 0 0
-0 -0 -0 -1 -1 -1 -1 -1 -0 -0 -1 -1 -1 -1 -1 -1 -1 -0 -0 -1 -1 -1 -1 -0 -0 -0 -0 -0 -0 -0 -0 -0 -0 -0 -0 -0 -0 -0 -0 -1 -1 -1 -0
-1 -1 -1 -1 -1 -1 -1 -1 -1 -1 -1 -1 -1 -1 -1 -1 -1 -1 -1 -1 -1 -1 -1 -1 -1 -1 -1 -1 -1 -1 -1 -1 -1 -1 -1 -1 -1 -1 -1 -1 -1 -1 -1
-1 -1 -1 -1 -1 -1 -1 -1 -1 -1 -1 -1 -1 -1 -1 -1 -1 -1 -2 -2 -2 -1 -1 -1 -1 -1 -1 -1 -1 -1 -1 -1 -1 -1 -1 -1 -1 -1 -1 -1 -1 -1 -1
-2 -2 -2 -2 -1 -2 -2 -2 -2 -2 -2 -2 -2 -2 -2 -2 -2 -2 -2 -2 -2 -2 -2 -2 -2 -2 -2 -2 -2 -1 -1 -1 -1 -1 -1 -1 -1 -1 -2 -2 -1 -2 -2
-2 -2 -2 -2 -2 -2 -2 -2 -2 -2 -2 -2 -2 -2 -2 -2 -2 -2 -2 -3 -3 -3 -3 -2 -2 -2 -2 -2 -2 -2 -2 -2 -2 -2 -2 -2 -2 -2 -2 -2 -2 -2 -2
-3 -3 -3 -3 -3 -3 -2 -2 -2 -2 -2 -3 -3 -3 -3 -3 -3 -3 -3 -3 -3 -3 -3 -3 -3 -3 -3 -3 -3 -3 -2 -2 -2 -2 -2 -2 -2 -2 -2 -2 -2 -3 -3
-3 -3 -3 -3 -3 -3 -3 -3 -3 -3 -3 -3 -3 -3 -3 -3 -3 -3 -3 -4 -4 -4 -3 -3 -3 -3 -3 -3 -3 -3 -3 -3 -3 -3 -3 -3 -3 -3 -3 -3 -3 -3 -3
-3 -3 -3 -3 -3 -3 -3 -3 -3 -3 -4 -4 -4 -4 -4 -4 -4 -4 -4 -4 -4 -4 -4 -4 -4 -4 -4 -4 -4 -4 -4 -4 -4 -4 -4 -3 -3 -3 -3 -3 -3 -3 -3
-4 -4 -4 -4 -4 -4 -4 -4 -4 -4 -4 -4 -4 -4 -4 -4 -4 -4 -4 -4 -4 -4 -4 -4 -4 -4 -4 -4 -4 -4 -4 -4 -4 -4 -4 -4 -4 -4 -3 -3 -3 -3 -3
-4 -4 -4 -4 -4 -4 -4 -4 -4 -5 -5 -5 -5 -5 -5 -5 -5 -5 -5 -5 -5 -4 -4 -4 -4 -4 -5 -5 -5 -5 -5 -5 -5 -4 -4 -4 -4 -4 -4 -4 -4 -4 -4
-4 -4 -4 -4 -4 -5 -5 -5 -5 -5 -5 -5 -5 -5 -5 -5 -5 -5 -5 -5 -5 -4 -4 -5 -5 -5 -5 -5 -5 -5 -5 -5 -5 -5 -5 -5 -4 -4 -4 -4 -4 -4 -4
-5 -5 -5 -5 -5 -5 -5 -5 -5 -5 -5 -5 -5 -5 -5 -5 -5 -5 -5 -5 -5 -5 -5 -5 -5 -5 -5 -5 -5 -5 -5 -5 -5 -5 -5 -5 -5 -5 -5 -5 -5 -5 -5
-5 -5 -5 -5 -5 -5 -5 -5 -5 -5 -5 -5 -5 -5 -5 -5 -5 -5 -5 -5 -5 -5 -5 -5 -5 -6 -6 -6 -6 -6 -6 -6 -6 -6 -6 -6 -6 -5 -5 -5 -5 -5 -5
-5 -5 -6 -6 -6 -6 -6 -6 -6 -6 -6 -6 -5 -5 -5 -5 -5 -5 -5 -5 -5 -6 -6 -6 -6 -6 -6 -6 -6 -6 -6 -6 -6 -6 -6 -6 -6 -6 -6 -6 -5 -5 -5
-6 -6 -6 -6 -6 -6 -6 -6 -6 -6 -6 -6 -6 -6 -6 -6 -6 -6 -6 -6 -6 -6 -6 -6 -6 -6 -6 -6 -6 -6 -6 -6 -6 -6 -6 -6 -6 -6 -6 -6 -6 -6 -5
-6 -6 -6 -6 -6 -6 -6 -6 -6 -6 -6 -6 -6 -6 -6 -6 -6 -6 -6 -6 -6 -6 -6 -6 -6 -6 -6 -6 -6 -6 -6 -7 -6 -6 -6 -6 -6 -6 -6 -6 -6 -6 -6
-6 -6 -6 -6 -6 -6 -6 -6 -7 -7 -7 -7 -7 -7 -6 -6 -7 -7 -6 -6 -6 -6 -6 -6 -6 -7 -7 -7 -6 -7 -7 -7 -7 -6 -6 -6 -6 -6 -6 -6 -6 -6 -6
-6 -7 -7 -7 -7 -7 -7 -7 -7 -7 -7 -7 -7 -7 -7 -7 -7 -7 -7 -7 -7 -6 -6 -6 -6 -7 -7 -7 -7 -7 -7 -7 -7 -7 -6 -7 -7 -6 -6 -6 -6 -6 -6
-7 -7 -7 -7 -7 -7 -7 -7 -7 -7 -7 -7 -7 -7 -7 -7 -7 -7 -7 -7 -7 -7 -7 -7 -7 -7 -7 -7 -7 -7 -7 -6 -7 -7 -7 -7 -7 -7 -6 -6 -6 -6 -6
-7 -7 -7 -7 -7 -7 -7 -7 -7 -7 -7 -7 -7 -7 -7 -7 -7 -7 -7 -7 -7 -7 -7 -7 -7 -7 -7 -7 -7 -6 -6 -7 -7 -7 -7 -7 -7 -7 -7 -7 -7 -7 -7
-7 -7 -7 -7 -7 -7 -7 -7 -7 -7 -7 -7 -7 -7 -7 -7 -7 -7 -7 -7 -7 -7 -7 -7 -7 -7 -7 -7 -7 -6 -7 -7 -7 -7 -7 -7 -7 -7 -7 -7 -7 -7 -7
Wind_Speed
3 3 3 4 4 4 4 4 4 4 4 5 5 5 5 5 5 5 5 5 6 6 6 6 6 6 5 5 5 6 6 6 7 7 6 5 6 6 6 6 7 8 8
3 3 3 4 4 4 4 4 4 5 5 5 5 5 6 5 5 6 6 6 6 7 6 6 6 5 6 6 6 6 6 6 7 8 7 6 7 6 6 6 6 7 8
2 2 3 3 3 3 4 4 4 4 4 4 5 5 5 5 5 6 6 6 7 6 6 6 6 6 6 5 6 6 6 6 6 6 7 6 6 5 6 7 7 6 7
2 2 2 3 3 3 3 3 3 3 3 4 4 5 5 5 5 5 5 6 6 5 5 6 6 7 7 6 6 6 6 6 6 6 6 5 5 5 5 6 6 6 6
2 2 2 3 2 2 2 3 3 3 3 3 4 4 5 5 5 5 5 5 5 5 5 5 6 6 7 7 6 6 6 5 5 5 5 5 5 5 5 5 6 6 7
2 2 2 2 2 2 2 2 2 2 2 3 4 4 5 4 5 6 5 5 5 5 5 5 5 5 6 7 8 8 7 6 6 6 6 7 8 7 5 5 5 6 6
2 2 2 2 2 2 2 2 2 2 2 3 3 4 4 4 5 5 5 4 4 4 5 4 3 4 5 4 5 6 6 7 8 8 8 8 7 7 6 7 7 7 7
2 2 2 2 2 1 1 2 2 2 2 3 3 3 3 3 3 4 4 4 3 4 4 4 4 4 4 4 4 4 4 4 5 6 6 7 6 6 6 7 7 6 6
2 3 3 2 2 1 1 2 2 2 2 3 3 2 2 2 1 2 2 2 2 3 3 3 4 4 4 4 3 3 4 4 4 5 7 7 6 7 6 4 4 4 5
3 3 3 2 2 2 2 2 2 2 2 2 2 2 2 2 2 1 2 2 2 2 3 3 3 4 4 4 3 3 3 4 4 4 4 4 4 4 5 5 5 5 5
3 3 2 2 2 2 2 2 2 2 2 2 3 3 3 2 2 2 2 2 2 2 2 2 2 3 3 4 3 3 4 4 3 3 3 3 3 3 3 3 3 4 5
3 3 3 3 2 2 2 2 2 2 2 2 2 3 3 3 3 2 2 2 2 2 2 2 2 2 3 3 2 2 3 3 2 2 2 2 2 3 3 3 3 4 4
2 3 3 3 2 2 2 2 2 2 2 2 2 2 3 3 3 4 3 2 2 2 2 2 2 2 2 2 2 2 2 2 2 2 2 3 3 3 3 2 3 3 4
2 2 2 2 2 2 2 2 2 2 2 2 2 3 3 3 3 3 3 2 2 2 2 1 1 2 2 2 2 2 2 2 2 2 2 3 2 2 3 2 3 3 3
2 2 2 2 2 2 2 2 2 2 2 2 3 3 3 3 4 5 4 3 2 2 2 1 1 1 1 2 2 2 2 2 2 2 2 2 2 2 3 3 3 3 3
1 1 2 2 2 2 2 2 3 3 4 4 4 4 3 4 5 5 5 4 3 2 1 1 1 1 2 2 2 2 2 2 2 2 2 2 2 2 3 3 3 3 3
1 1 2 2 2 2 2 2 3 3 3 4 5 5 4 5 5 5 5 4 3 2 1 1 1 2 2 2 2 2 2 3 3 2 2 2 2 2 2 2 2 3 3
1 1 2 1 2 2 2 2 2 3 3 3 4 6 5 5 5 5 4 3 2 1 1 1 1 2 2 2 2 2 2 2 2 2 2 2 2 2 2 2 2 3 3
1 1 1 1 1 1 2 2 2 3 3 3 4 4 5 5 5 5 4 2 2 1 1 1 1 2 2 2 2 2 2 2 3 2 2 2 2 2 2 2 2 3 3
1 1 2 1 1 1 2 2 2 2 3 3 4 4 4 4 3 3 3 2 2 2 2 2 2 2 2 2 2 2 2 2 2 2 2 2 2 2 2 3 3 3 3
1 1 1 1 1 1 2 2 2 2 3 3 3 4 5 3 3 3 3 2 2 2 2 2 2 2 2 2 2 2 2 2 3 2 2 2 2 2 2 2 2 2 3
1 1 1 1 1 1 2 2 2 2 2 3 3 4 5 3 3 3 3 3 3 3 3 2 2 2 2 2 2 2 2 2 2 2 2 2 2 2 2 2 2 2 2
1 1 1 1 1 2 2 2 2 2 2 3 3 3 3 3 3 3 3 3 3 3 2 2 2 2 2 3 3 3 3 3 3 3 3 3 2 2 2 2 2 2 2
1 1 1 1 1 1 1 2 2 2 2 3 3 3 3 3 3 3 3 3 3 3 3 2 3 3 4 4 3 3 3 4 4 3 3 3 3 2 2 2 2 2 2
1 1 1 1 1 2 2 2 2 2 2 3 3 3 3 3 3 3 3 3 3 3 3 3 3 3 4 4 4 4 4 5 5 4 3 2 2 2 2 2 2 2 2
1 1 1 1 2 2 2 2 2 3 3 3 3 3 3 3 3 3 3 3 3 3 3 3 3 4 4 4 4 5 5 5 5 4 3 2 2 2 2 1 2 2 2
Wind_Direction
275 274 277 275 271 266 264 264 264 262 258 245 241 240 238 239 240 241 243 245 246 244 243 244 247 245 240 234 234 234 237 243 257 272 277 280 277 272 270 272 275 276 276
282 280 282 282 275 267 265 265 265 261 257 250 244 240 240 241 242 241 244 246 246 243 244 246 249 248 245 237 235 238 242 244 251 264 273 274 274 272 271 272 275 279 279
282 284 290 291 284 279 278 271 265 261 259 253 245 240 239 241 245 246 245 249 247 246 244 246 250 248 248 247 242 244 248 249 251 256 267 272 274 271 272 273 275 277 280
301 301 294 294 288 282 282 278 271 262 255 253 249 248 246 245 248 249 250 252 251 252 252 253 252 249 249 251 248 248 250 250 250 253 263 270 272 273 271 273 278 276 278
303 305 300 300 297 293 289 288 289 276 263 259 255 253 250 248 249 251 250 251 253 254 257 259 259 261 262 260 255 250 247 247 250 254 260 265 263 264 263 270 274 281 280
292 294 301 300 297 295 297 297 299 296 282 269 261 258 258 254 257 254 253 253 252 255 259 265 265 264 267 267 263 259 254 249 249 252 256 256 259 263 264 262 269 277 277
296 306 308 305 302 303 312 316 320 315 304 287 276 265 261 258 258 252 250 257 254 256 259 263 268 271 273 271 268 267 264 263 259 256 255 258 263 262 259 261 261 269 272
319 319 321 326 337 346 342 340 334 324 316 309 299 288 279 272 263 251 255 252 251 257 261 263 265 273 273 276 273 275 276 276 271 264 261 266 272 272 266 266 269 275 278
326 318 322 326 332 337 335 329 321 322 324 317 308 311 301 302 291 260 265 258 256 268 274 275 274 273 276 281 272 271 278 286 285 273 275 274 276 272 268 267 261 266 274
322 317 322 326 325 319 314 311 320 323 327 333 334 327 317 312 333 312 286 261 265 275 279 280 277 278 286 290 271 261 269 283 291 292 287 282 277 273 269 261 261 265 276
326 335 334 332 329 319 317 323 332 340 342 343 342 339 334 331 331 336 321 285 270 273 278 284 288 295 297 300 286 270 275 291 291 290 290 296 298 290 285 282 275 268 266
338 350 345 343 344 344 338 337 339 340 339 341 342 343 343 341 346 343 336 312 304 282 282 290 301 316 310 302 292 297 308 313 302 295 289 290 293 290 288 289 286 284 281
347 348 347 350 352 353 347 342 341 338 335 333 333 336 339 341 346 356 356 347 324 299 293 309 318 323 324 317 320 314 307 301 300 295 290 290 293 294 295 296 296 294 294
332 338 344 346 351 356 356 352 350 338 328 322 323 326 330 334 335 338 334 332 325 303 298 314 338 352 337 337 331 312 301 300 298 291 296 300 301 301 298 297 298 300 295
329 335 340 340 334 346 357 358 347 345 329 315 312 313 315 319 329 328 318 312 307 294 288 289 313 342 338 339 337 328 318 314 308 305 300 307 309 308 307 308 309 303 292
327 336 341 340 339 338 338 354 18 359 359 354 341 323 321 324 331 334 332 324 315 301 292 300 299 306 307 310 316 322 321 315 312 308 305 304 305 307 311 315 313 309 304
315 326 332 336 335 334 334 331 336 351 1 0 358 349 337 333 336 338 338 336 322 308 291 286 293 293 292 293 301 308 310 311 310 302 305 305 304 306 310 314 318 317 315
328 331 319 323 329 328 328 328 328 330 333 337 346 353 352 349 347 345 342 341 344 354 343 317 305 302 298 298 298 303 304 306 306 304 305 304 302 304 309 309 311 314 312
326 320 318 325 326 322 324 325 328 328 328 329 331 340 351 350 354 359 354 351 349 347 339 324 311 305 302 303 303 299 298 298 303 303 305 307 304 302 303 305 308 312 310
319 333 325 317 322 326 328 328 328 329 330 333 335 336 338 343 348 350 354 348 331 323 317 310 308 305 299 296 295 298 300 302 304 302 304 306 305 299 297 298 304 307 308
308 324 327 319 320 321 322 323 322 324 327 327 328 335 338 334 331 329 328 328 318 312 311 308 305 301 298 295 292 294 296 299 304 306 308 309 306 306 308 303 302 302 308
292 305 309 311 315 320 317 315 315 317 322 322 323 329 339 332 321 316 314 314 314 313 310 303 298 302 298 292 287 287 290 295 303 307 308 307 305 305 308 308 315 319 318
280 290 300 313 313 314 316 315 314 317 321 324 323 323 326 324 319 316 313 312 312 311 315 311 302 303 308 300 292 283 279 284 293 295 295 297 300 303 304 309 315 317 321
272 277 291 304 306 305 309 314 316 315 317 319 319 320 320 318 316 316 318 319 318 318 319 314 303 301 304 306 298 290 288 292 295 287 283 282 290 297 303 314 316 317 316
259 276 296 305 306 303 304 309 312 316 316 314 313 314 316 317 315 315 319 320 320 318 319 318 311 306 301 301 303 301 299 298 297 295 285 280 287 297 305 311 315 316 318
271 277 285 292 296 298 298 303 309 311 309 309 308 308 310 310 309 310 311 312 314 315 317 317 315 314 309 304 302 304 303 298 295 295 290 280 277 281 289 292 302 307 314
Height
1465 1464 1464 1463 1463 1462 1462 1462 1461 1461 1462 1462 1462 1462 1463 1463 1464 1465 1465 1466 1466 1467 1468 1468 1469 1470 1470 1471 1472 1472 1473 1473 1472 1471 1471 1470 1470 1468 1467 1467 1466 1465 1463
1461 1461 1460 1460 1459 1459 1458 1458 1458 1458 1458 1458 1458 1459 1459 1460 1460 1461 1461 1462 1462 1462 1463 1464 1464 1465 1466 1466 1467 1467 1468 1468 1467 1466 1466 1466 1465 1464 1463 1462 1461 1460 1459
1458 1458 1457 1457 1456 1456 1455 1455 1454 1454 1454 1454 1454 1455 1455 1455 1456 1456 1457 1457 1458 1458 1458 1459 1459 1460 1461 1461 1462 1462 1463 1463 1462 1462 1461 1460 1460 1459 1458 1458 1457 1455 1454
1456 1455 1454 1454 1453 1452 1452 1451 1451 1450 1450 1450 1450 1450 1451 1451 1451 1452 1452 1453 1453 1453 1454 1454 1455 1455 1456 1457 1457 1458 1458 1458 1458 1457 1456 1455 1455 1454 1454 1453 1451 1451 1449
1453 1452 1451 1451 1450 1449 1449 1448 1448 1447 1447 1447 1447 1447 1447 1447 1447 1447 1448 1448 1448 1449 1449 1449 1450 1451 1451 1452 1452 1453 1453 1453 1453 1452 1451 1451 1450 1450 1449 1448 1447 1446 1445
1451 1449 1449 1448 1447 1446 1446 1445 1445 1444 1444 1444 1444 1443 1443 1443 1443 1444 1444 1444 1444 1445 1445 1445 1445 1446 1446 1447 1447 1448 1448 1448 1448 1447 1447 1446 1446 1446 1445 1444 1443 1442 1440
1448 1447 1446 1445 1444 1443 1443 1443 1442 1442 1442 1441 1440 1440 1440 1440 1440 1440 1440 1440 1441 1441 1441 1441 1441 1442 1442 1442 1442 1443 1443 1443 1443 1443 1442 1442 1442 1441 1441 1440 1439 1438 1436
1446 1445 1444 1443 1442 1442 1442 1441 1441 1440 1439 1439 1438 1437 1437 1437 1437 1437 1437 1437 1437 1438 1438 1438 1438 1438 1438 1438 1438 1438 1438 1438 1438 1438 1437 1437 1437 1436 1436 1436 1434 1433 1432
1444 1443 1443 1442 1441 1441 1440 1440 1439 1439 1438 1437 1436 1435 1434 1434 1434 1434 1434 1434 1434 1434 1434 1434 1434 1434 1434 1434 1434 1434 1433 1433 1433 1433 1433 1432 1431 1432 1432 1431 1430 1429 1427
1443 1442 1442 1441 1440 1440 1439 1438 1438 1437 1436 1435 1434 1433 1432 1432 1431 1431 1432 1432 1431 1431 1431 1431 1431 1431 1430 1430 1430 1430 1429 1429 1429 1428 1428 1428 1427 1427 1427 1427 1426 1425 1424
1442 1441 1440 1440 1439 1438 1438 1437 1436 1435 1435 1434 1432 1432 1431 1430 1430 1429 1429 1429 1429 1429 1428 1428 1428 1428 1427 1427 1427 1427 1426 1426 1426 1425 1424 1424 1423 1423 1423 1423 1422 1422 1421
1441 1440 1439 1438 1438 1437 1436 1436 1435 1434 1433 1432 1431 1430 1430 1429 1429 1428 1427 1427 1427 1426 1426 1425 1425 1425 1424 1424 1424 1424 1424 1424 1423 1422 1421 1420 1420 1420 1420 1419 1419 1418 1417
1440 1439 1438 1438 1437 1436 1435 1434 1433 1432 1432 1431 1430 1429 1429 1428 1427 1426 1426 1425 1425 1424 1424 1424 1423 1423 1422 1422 1422 1422 1422 1421 1420 1420 1419 1418 1418 1417 1417 1416 1415 1415 1413
1439 1438 1438 1437 1436 1435 1434 1433 1432 1431 1431 1430 1429 1429 1428 1427 1426 1425 1424 1424 1423 1423 1422 1422 1422 1421 1421 1420 1420 1420 1419 1419 1418 1418 1417 1416 1416 1415 1414 1413 1412 1411 1410
1438 1438 1437 1436 1435 1434 1433 1432 1431 1431 1430 1429 1428 1428 1427 1426 1426 1425 1424 1423 1422 1421 1421 1421 1420 1420 1419 1419 1418 1418 1417 1417 1416 1416 1415 1414 1413 1412 1412 1411 1410 1409 1408
1438 1437 1436 1435 1434 1433 1432 1432 1431 1430 1429 1428 1427 1426 1425 1425 1424 1423 1422 1421 1421 1420 1420 1419 1419 1418 1418 1417 1416 1416 1415 1415 1414 1414 1413 1412 1411 1410 1409 1409 1408 1407 1406
1437 1436 1435 1434 1433 1433 1432 1430 1429 1429 1428 1427 1426 1425 1424 1423 1422 1421 1421 1420 1419 1419 1418 1418 1417 1417 1416 1415 1414 1414 1413 1413 1412 1412 1411 1410 1409 1409 1408 1407 1406 1405 1404
1436 1436 1435 1434 1433 1432 1431 1430 1429 1427 1427 1426 1425 1424 1423 1422 1421 1420 1419 1419 1418 1417 1416 1416 1416 1415 1414 1414 1413 1412 1412 1411 1410 1409 1409 1408 1407 1407 1406 1405 1404 1403 1402
1436 1435 1434 1433 1432 1431 1430 1429 1428 1427 1426 1424 1423 1423 1422 1421 1420 1419 1418 1417 1416 1415 1415 1414 1414 1413 1413 1412 1411 1411 1410 1409 1408 1408 1407 1406 1405 1405 1404 1403 1403 1402 1401
1435 1434 1433 1432 1431 1430 1429 1428 1427 1426 1425 1424 1422 1421 1420 1419 1418 1417 1416 1415 1415 1414 1413 1413 1412 1412 1411 1410 1410 1409 1409 1408 1407 1406 1405 1404 1404 1403 1403 1402 1401 1400 1400
1433 1433 1432 1431 1430 1429 1428 1427 1426 1425 1424 1423 1421 1420 1419 1418 1417 1416 1415 1414 1413 1412 1412 1411 1411 1410 1409 1409 1408 1408 1407 1406 1406 1405 1404 1403 1403 1402 1401 1401 1400 1399 1399
1432 1431 1431 1430 1429 1428 1427 1426 1425 1424 1423 1422 1421 1420 1418 1417 1416 1415 1413 1412 1412 1411 1410 1410 1409 1408 1408 1407 1407 1406 1405 1405 1404 1404 1403 1402 1401 1401 1400 1400 1399 1398 1398
1431 1430 1429 1429 1428 1427 1426 1425 1424 1423 1422 1421 1420 1418 1417 1416 1415 1413 1412 1411 1410 1409 1409 1408 1407 1407 1406 1406 1405 1405 1404 1403 1403 1402 1402 1401 1401 1400 1399 1399 1398 1398 1397
1429 1429 1428 1427 1427 1426 1425 1424 1423 1422 1421 1420 1419 1417 1416 1415 1413 1412 1411 1410 1409 1408 1407 1407 1406 1405 1405 1404 1404 1403 1403 1402 1402 1401 1401 1400 1400 1399 1399 1398 1397 1397 1396
1428 1427 1427 1426 1425 1425 1424 1423 1422 1421 1420 1419 1418 1416 1415 1414 1412 1411 1410 1409 1408 1407 1406 1405 1405 1404 1403 1403 1402 1402 1402 1401 1401 1400 1400 1399 1399 1398 1398 1397 1397 1396 1396
1427 1426 1425 1425 1424 1423 1423 1422 1421 1420 1419 1418 1416 1415 1414 1412 1411 1410 1409 1407 1406 1405 1405 1404 1403 1403 1402 1402 1401 1401 1400 1400 1399 1399 1399 1398 1398 1397 1397 1396 1396 1395 1395